Terminal Aerodrome Forecast
Issued by NWS Billings, MT

Home | Current Version | Previous Version | Text Only | Print | Product List | Glossary On
Versions: 1 2 3 4 5 6 7 8 9 10 11 12 13 14 15 16 17 18 19 20 21 22 23 24 25 26 27 28 29 30 31
000
FTUS45 KBYZ 282336
TAFMLS
TAF
KMLS 282336Z 2900/2924 35016KT P6SM VCTS SCT050CB BKN070
     FM290600 02014KT P6SM VCSH BKN060
     FM291200 36008KT P6SM SCT080
     FM291800 03006KT P6SM SCT100=

USA.gov is the U.S. government's official web portal to all federal, state and local government web resources and services.